| time (UTC) | temp C | wind direction | speed KPH | gust KPH | rain 1hr cm | rain 24hr cm | rain mn cm | humidity % | barometer mb |
| 20260509162014 | 30 | 194 | 1.6 | 3.2 | 0.00 | 0.00 | 0.00 | 46 | 1012.1 |
| 20260509161510 | 30 | 269 | 0.0 | 3.2 | 0.00 | 0.00 | 0.00 | 49 | 1012.1 |
| 20260509161011 | 29 | 196 | 0.0 | 3.2 | 0.00 | 0.00 | 0.00 | 54 | 1012.0 |
| 20260509160506 | 29 | 245 | 0.0 | 6.4 | 0.00 | 0.00 | 0.00 | 48 | 1012.0 |
| 20260509160002 | 29 | 342 | 3.2 | 4.8 | 0.00 | 0.00 | 0.00 | 49 | 1011.9 |
| 20260509155459 | 29 | 164 | 1.6 | 4.8 | 0.00 | 0.00 | 0.00 | 49 | 1011.8 |
| 20260509154955 | 29 | 129 | 0.0 | 3.2 | 0.00 | 0.00 | 0.00 | 50 | 1011.8 |
| 20260509154451 | 28 | 147 | 0.0 | 3.2 | 0.00 | 0.00 | 0.00 | 51 | 1011.7 |
| 20260509153949 | 28 | 94 | 1.6 | 3.2 | 0.00 | 0.00 | 0.00 | 51 | 1012.0 |
| 20260509153445 | 28 | 276 | 1.6 | 4.8 | 0.00 | 0.00 | 0.00 | 51 | 1011.7 |
| 20260509152943 | 28 | 159 | 1.6 | 4.8 | 0.00 | 0.00 | 0.00 | 54 | 1011.8 |
| 20260509152438 | 27 | 158 | 1.6 | 4.8 | 0.00 | 0.00 | 0.00 | 55 | 1012.0 |
| 20260509151935 | 27 | 92 | 1.6 | 4.8 | 0.00 | 0.00 | 0.00 | 53 | 1012.0 |
| 20260509151432 | 27 | 174 | 1.6 | 3.2 | 0.00 | 0.00 | 0.00 | 55 | 1012.0 |
| 20260509150930 | 27 | 112 | 1.6 | 4.8 | 0.00 | 0.00 | 0.00 | 55 | 1011.9 |
| 20260509150427 | 27 | 10 | 0.0 | 3.2 | 0.00 | 0.00 | 0.00 | 56 | 1012.1 |
| 20260509145925 | 26 | 173 | 3.2 | 6.4 | 0.00 | 0.00 | 0.00 | 57 | 1012.1 |
| 20260509145425 | 26 | 120 | 3.2 | 4.8 | 0.00 | 0.00 | 0.00 | 55 | 1012.3 |
| 20260509144921 | 26 | 174 | 1.6 | 4.8 | 0.00 | 0.00 | 0.00 | 56 | 1012.0 |
| 20260509144418 | 26 | 107 | 0.0 | 3.2 | 0.00 | 0.00 | 0.00 | 58 | 1012.1 |
| 20260509143915 | 26 | 320 | 3.2 | 6.4 | 0.00 | 0.00 | 0.00 | 58 | 1012.1 |
| 20260509143412 | 25 | 159 | 1.6 | 4.8 | 0.00 | 0.00 | 0.00 | 62 | 1012.1 |
| 20260509142908 | 25 | 187 | 0.0 | 3.2 | 0.00 | 0.00 | 0.00 | 65 | 1012.0 |
| 20260509142405 | 25 | 115 | 3.2 | 3.2 | 0.00 | 0.00 | 0.00 | 64 | 1012.1 |
| 20260509141901 | 25 | 273 | 0.0 | 4.8 | 0.00 | 0.00 | 0.00 | 66 | 1012.0 |
| 20260509141358 | 25 | 167 | 1.6 | 4.8 | 0.00 | 0.00 | 0.00 | 70 | 1012.1 |
| 20260509140854 | 24 | 146 | 0.0 | 3.2 | 0.00 | 0.00 | 0.00 | 72 | 1012.0 |
| 20260509140351 | 24 | 156 | 0.0 | 4.8 | 0.00 | 0.00 | 0.00 | 74 | 1011.9 |
| 20260509135849 | 23 | 50 | 0.0 | 3.2 | 0.00 | 0.00 | 0.00 | 75 | 1012.0 |
| 20260509135347 | 23 | 177 | 0.0 | 3.2 | 0.00 | 0.00 | 0.00 | 76 | 1012.0 |
| 20260509134844 | 23 | 198 | 1.6 | 3.2 | 0.00 | 0.00 | 0.00 | 77 | 1012.2 |
| 20260509134341 | 23 | 176 | 0.0 | 1.6 | 0.00 | 0.00 | 0.00 | 78 | 1012.0 |
| 20260509133837 | 23 | 119 | 1.6 | 3.2 | 0.00 | 0.00 | 0.00 | 78 | 1011.8 |
| 20260509133334 | 23 | 109 | 1.6 | 4.8 | 0.00 | 0.00 | 0.00 | 78 | 1012.1 |
| 20260509132833 | 23 | 189 | 1.6 | 4.8 | 0.00 | 0.00 | 0.00 | 78 | 1011.8 |
| 20260509132331 | 22 | 96 | 1.6 | 4.8 | 0.00 | 0.00 | 0.00 | 80 | 1011.8 |
| 20260509131828 | 22 | 63 | 0.0 | 4.8 | 0.00 | 0.00 | 0.00 | 81 | 1011.9 |
| 20260509131325 | 22 | 38 | 1.6 | 3.2 | 0.00 | 0.00 | 0.00 | 83 | 1011.9 |
| 20260509130821 | 21 | 78 | 3.2 | 3.2 | 0.00 | 0.00 | 0.00 | 84 | 1011.9 |
| 20260509130317 | 21 | 104 | 3.2 | 4.8 | 0.00 | 0.00 | 0.00 | 85 | 1012.1 |
| 20260509125814 | 21 | 168 | 3.2 | 4.8 | 0.00 | 0.00 | 0.00 | 87 | 1012.0 |
| 20260509125310 | 21 | 109 | 3.2 | 3.2 | 0.00 | 0.00 | 0.00 | 87 | 1012.0 |
| 20260509124807 | 21 | 42 | 0.0 | 3.2 | 0.00 | 0.00 | 0.00 | 88 | 1012.0 |
| 20260509124303 | 20 | 126 | 1.6 | 3.2 | 0.00 | 0.00 | 0.00 | 89 | 1012.1 |
| 20260509123802 | 20 | 150 | 3.2 | 3.2 | 0.00 | 0.00 | 0.00 | 89 | 1012.0 |
| 20260509123259 | 20 | 133 | 0.0 | 3.2 | 0.00 | 0.00 | 0.00 | 90 | 1011.8 |
| 20260509122754 | 20 | 182 | 1.6 | 3.2 | 0.00 | 0.00 | 0.00 | 90 | 1011.9 |
| 20260509122251 | 20 | 140 | 3.2 | 3.2 | 0.00 | 0.00 | 0.00 | 90 | 1011.8 |
| 20260509121748 | 20 | 142 | 0.0 | 3.2 | 0.00 | 0.00 | 0.00 | 90 | 1011.6 |
| 20260509121245 | 20 | 106 | 3.2 | 4.8 | 0.00 | 0.00 | 0.00 | 90 | 1011.7 |
| 20260509120743 | 20 | 98 | 1.6 | 3.2 | 0.00 | 0.00 | 0.00 | 90 | 1011.6 |
| 20260509120241 | 20 | 59 | 1.6 | 3.2 | 0.00 | 0.00 | 0.00 | 90 | 1011.7 |
| 20260509115739 | 20 | 18 | 0.0 | 3.2 | 0.00 | 0.00 | 0.00 | 90 | 1011.5 |
| 20260509115235 | 20 | 109 | 1.6 | 3.2 | 0.00 | 0.00 | 0.00 | 90 | 1011.6 |
| 20260509114734 | 20 | 204 | 4.8 | 6.4 | 0.00 | 0.00 | 0.00 | 90 | 1011.5 |
| 20260509114232 | 20 | 156 | 0.0 | 3.2 | 0.00 | 0.00 | 0.00 | 90 | 1011.1 |
| 20260509113730 | 20 | 136 | 1.6 | 3.2 | 0.00 | 0.00 | 0.00 | 89 | 1011.2 |
| 20260509113227 | 20 | 116 | 3.2 | 3.2 | 0.00 | 0.00 | 0.00 | 89 | 1010.9 |
| 20260509112724 | 20 | 94 | 1.6 | 3.2 | 0.00 | 0.00 | 0.00 | 89 | 1011.1 |
| 20260509112221 | 20 | 63 | 3.2 | 4.8 | 0.00 | 0.00 | 0.00 | 89 | 1010.9 |
| 20260509111718 | 20 | 110 | 3.2 | 6.4 | 0.00 | 0.00 | 0.00 | 88 | 1010.9 |
| 20260509111215 | 20 | 115 | 3.2 | 6.4 | 0.00 | 0.00 | 0.00 | 87 | 1010.9 |
| 20260509110713 | 20 | 103 | 1.6 | 4.8 | 0.00 | 0.00 | 0.00 | 87 | 1010.4 |
| 20260509110209 | 20 | 32 | 0.0 | 4.8 | 0.00 | 0.00 | 0.00 | 86 | 1010.5 |
| 20260509105707 | 20 | 62 | 3.2 | 4.8 | 0.00 | 0.00 | 0.00 | 86 | 1010.7 |
| 20260509105204 | 20 | 248 | 1.6 | 4.8 | 0.00 | 0.00 | 0.00 | 86 | 1010.5 |
| 20260509104701 | 20 | 62 | 3.2 | 4.8 | 0.00 | 0.00 | 0.00 | 85 | 1010.3 |
| 20260509104158 | 20 | 129 | 0.0 | 4.8 | 0.00 | 0.00 | 0.00 | 84 | 1010.4 |
| 20260509103656 | 20 | 78 | 3.2 | 8.0 | 0.00 | 0.00 | 0.00 | 84 | 1010.4 |
| 20260509103153 | 20 | 88 | 3.2 | 3.2 | 0.00 | 0.00 | 0.00 | 84 | 1010.6 |
| 20260509102651 | 20 | 75 | 1.6 | 3.2 | 0.00 | 0.00 | 0.00 | 83 | 1010.2 |
| 20260509102148 | 20 | 19 | 0.0 | 3.2 | 0.00 | 0.00 | 0.00 | 82 | 1010.2 |
| 20260509101644 | 20 | 89 | 1.6 | 3.2 | 0.00 | 0.00 | 0.00 | 82 | 1009.9 |
| 20260509101141 | 20 | 76 | 1.6 | 3.2 | 0.00 | 0.00 | 0.00 | 82 | 1010.1 |
| 20260509100638 | 20 | 78 | 1.6 | 1.6 | 0.00 | 0.00 | 0.00 | 81 | 1010.0 |
| 20260509100135 | 20 | 107 | 0.0 | 3.2 | 0.00 | 0.00 | 0.00 | 80 | 1010.3 |
| 20260509095632 | 21 | 92 | 0.0 | 3.2 | 0.00 | 0.00 | 0.00 | 79 | 1010.0 |
| 20260509095129 | 21 | 105 | 0.0 | 3.2 | 0.00 | 0.00 | 0.00 | 79 | 1009.9 |
| 20260509094626 | 21 | 89 | 0.0 | 1.6 | 0.00 | 0.00 | 0.00 | 78 | 1009.8 |
| 20260509094123 | 21 | 84 | 0.0 | 1.6 | 0.00 | 0.00 | 0.00 | 77 | 1009.6 |
| 20260509093621 | 21 | 126 | 0.0 | 1.6 | 0.00 | 0.00 | 0.00 | 76 | 1009.5 |
| 20260509093118 | 22 | 136 | 0.0 | 3.2 | 0.00 | 0.00 | 0.00 | 75 | 1009.4 |
| 20260509092616 | 22 | 84 | 1.6 | 3.2 | 0.00 | 0.00 | 0.00 | 74 | 1009.4 |
| 20260509092114 | 22 | 88 | 0.0 | 3.2 | 0.00 | 0.00 | 0.00 | 72 | 1009.3 |
| 20260509091612 | 22 | 219 | 0.0 | 3.2 | 0.00 | 0.00 | 0.00 | 71 | 1009.0 |
| 20260509091108 | 22 | 112 | 3.2 | 3.2 | 0.00 | 0.00 | 0.00 | 70 | 1009.2 |
| 20260509090606 | 22 | 109 | 3.2 | 3.2 | 0.00 | 0.00 | 0.00 | 69 | 1009.4 |
| 20260509085600 | 22 | 165 | 1.6 | 4.8 | 0.00 | 0.00 | 0.00 | 67 | 1009.1 |
| 20260509085056 | 23 | 138 | 1.6 | 4.8 | 0.00 | 0.00 | 0.00 | 68 | 1009.3 |
| 20260509084553 | 22 | 54 | 4.8 | 8.0 | 0.00 | 0.00 | 0.00 | 69 | 1009.6 |
| 20260509084050 | 22 | 83 | 6.4 | 14.5 | 0.00 | 0.00 | 0.00 | 71 | 1009.8 |
| 20260509083548 | 22 | 115 | 0.0 | 6.4 | 0.00 | 0.00 | 0.00 | 76 | 1008.1 |
| 20260509083044 | 21 | 44 | 3.2 | 6.4 | 0.00 | 0.00 | 0.00 | 77 | 1007.1 |
| 20260509082542 | 21 | 4 | 1.6 | 4.8 | 0.00 | 0.00 | 0.00 | 79 | 1006.8 |
| 20260509082039 | 21 | 119 | 3.2 | 6.4 | 0.00 | 0.00 | 0.00 | 79 | 1006.7 |
| 20260509081536 | 21 | 22 | 3.2 | 4.8 | 0.00 | 0.00 | 0.00 | 79 | 1007.4 |
| 20260509081032 | 21 | 108 | 1.6 | 4.8 | 0.00 | 0.00 | 0.00 | 80 | 1007.1 |
| 20260509080531 | 21 | 139 | 1.6 | 4.8 | 0.00 | 0.00 | 0.00 | 81 | 1007.4 |
| 20260509080029 | 21 | 51 | 0.0 | 4.8 | 0.00 | 0.00 | 0.00 | 82 | 1007.9 |
| 20260509075525 | 21 | 38 | 3.2 | 4.8 | 0.00 | 0.00 | 0.00 | 86 | 1008.4 |
| 20260509075024 | 21 | 129 | 1.6 | 6.4 | 0.00 | 0.00 | 0.00 | 88 | 1008.9 |
| 20260509074520 | 21 | 24 | 3.2 | 3.2 | 0.00 | 0.00 | 0.00 | 88 | 1009.5 |
| 20260509074017 | 21 | 356 | 0.0 | 4.8 | 0.00 | 0.00 | 0.00 | 88 | 1010.0 |
| 20260509073513 | 21 | 32 | 3.2 | 6.4 | 0.00 | 0.00 | 0.00 | 88 | 1010.1 |
| 20260509073010 | 21 | 91 | 3.2 | 6.4 | 0.00 | 0.00 | 0.00 | 88 | 1010.3 |
| 20260509072506 | 21 | 83 | 1.6 | 3.2 | 0.00 | 0.00 | 0.00 | 88 | 1010.6 |
| 20260509072003 | 21 | 76 | 0.0 | 4.8 | 0.00 | 0.00 | 0.00 | 88 | 1010.9 |
| 20260509071500 | 21 | 21 | 3.2 | 4.8 | 0.00 | 0.00 | 0.00 | 88 | 1010.8 |
| 20260509070957 | 21 | 3 | 3.2 | 8.0 | 0.00 | 0.00 | 0.00 | 88 | 1011.2 |
| 20260509070454 | 21 | 46 | 3.2 | 4.8 | 0.00 | 0.00 | 0.00 | 88 | 1011.1 |
| 20260509065950 | 21 | 63 | 4.8 | 6.4 | 0.00 | 0.00 | 0.00 | 89 | 1011.7 |
| 20260509065446 | 21 | 70 | 0.0 | 6.4 | 0.00 | 0.00 | 0.00 | 88 | 1011.8 |
| 20260509064942 | 21 | 46 | 1.6 | 3.2 | 0.00 | 0.00 | 0.00 | 88 | 1011.5 |
| 20260509064440 | 21 | 67 | 0.0 | 3.2 | 0.00 | 0.00 | 0.00 | 88 | 1011.6 |
| 20260509063938 | 21 | 46 | 1.6 | 8.0 | 0.00 | 0.00 | 0.00 | 88 | 1012.1 |
| 20260509063439 | 21 | 73 | 0.0 | 4.8 | 0.00 | 0.00 | 0.00 | 88 | 1012.1 |
| 20260509062936 | 21 | 44 | 0.0 | 3.2 | 0.00 | 0.00 | 0.00 | 88 | 1012.2 |
| 20260509062433 | 21 | 48 | 4.8 | 6.4 | 0.00 | 0.00 | 0.00 | 88 | 1012.2 |
| 20260509061931 | 21 | 118 | 0.0 | 4.8 | 0.00 | 0.00 | 0.00 | 88 | 1012.2 |
| 20260509061428 | 20 | 66 | 1.6 | 4.8 | 0.00 | 0.00 | 0.00 | 88 | 1012.5 |
| 20260509060925 | 20 | 34 | 1.6 | 4.8 | 0.00 | 0.00 | 0.00 | 88 | 1012.5 |
| 20260509060423 | 20 | 81 | 1.6 | 1.6 | 0.00 | 0.00 | 0.00 | 88 | 1012.3 |
| 20260509055917 | 20 | 69 | 1.6 | 3.2 | 0.00 | 0.00 | 0.00 | 88 | 1012.2 |
| 20260509055413 | 21 | 44 | 0.0 | 3.2 | 0.00 | 0.00 | 0.00 | 88 | 1012.1 |
| 20260509054910 | 21 | 58 | 1.6 | 3.2 | 0.00 | 0.00 | 0.00 | 87 | 1012.1 |
| 20260509054407 | 21 | 79 | 1.6 | 3.2 | 0.00 | 0.00 | 0.00 | 87 | 1011.8 |
| 20260509053905 | 21 | 102 | 1.6 | 3.2 | 0.00 | 0.00 | 0.00 | 87 | 1011.7 |
| 20260509053402 | 21 | 133 | 0.0 | 3.2 | 0.00 | 0.00 | 0.00 | 86 | 1012.2 |
| 20260509052900 | 21 | 149 | 1.6 | 3.2 | 0.00 | 0.00 | 0.00 | 86 | 1012.2 |
| 20260509052357 | 21 | 43 | 0.0 | 3.2 | 0.00 | 0.00 | 0.00 | 86 | 1012.2 |
| 20260509051855 | 21 | 115 | 1.6 | 3.2 | 0.00 | 0.00 | 0.00 | 85 | 1012.4 |
| 20260509051353 | 21 | 58 | 1.6 | 3.2 | 0.00 | 0.00 | 0.00 | 85 | 1012.8 |
| 20260509050849 | 21 | 152 | 0.0 | 3.2 | 0.00 | 0.00 | 0.00 | 85 | 1012.9 |
| 20260509050346 | 21 | 112 | 0.0 | 3.2 | 0.00 | 0.00 | 0.00 | 84 | 1012.5 |
| 20260509045843 | 21 | 155 | 1.6 | 4.8 | 0.00 | 1.04 | 1.04 | 84 | 1013.0 |
| 20260509045340 | 21 | 74 | 3.2 | 3.2 | 0.00 | 1.04 | 1.04 | 84 | 1013.0 |
| 20260509044837 | 22 | 112 | 0.0 | 1.6 | 0.00 | 1.04 | 1.04 | 83 | 1012.1 |
| 20260509044335 | 22 | 125 | 0.0 | 3.2 | 0.00 | 1.04 | 1.04 | 83 | 1011.9 |
| 20260509043831 | 22 | 107 | 0.0 | 1.6 | 0.00 | 1.04 | 1.04 | 83 | 1011.7 |
| 20260509043327 | 22 | 126 | 1.6 | 3.2 | 0.00 | 1.04 | 1.04 | 83 | 1011.8 |
| 20260509042823 | 22 | 127 | 3.2 | 3.2 | 0.00 | 1.04 | 1.04 | 83 | 1011.2 |
| 20260509042320 | 22 | 121 | 3.2 | 3.2 | 0.00 | 1.04 | 1.04 | 83 | 1011.2 |
| 20260509041816 | 22 | 98 | 0.0 | 3.2 | 0.00 | 1.04 | 1.04 | 83 | 1011.0 |
| 20260509041314 | 22 | 111 | 1.6 | 3.2 | 0.00 | 1.04 | 1.04 | 83 | 1010.8 |
| 20260509040812 | 22 | 64 | 0.0 | 3.2 | 0.00 | 1.04 | 1.04 | 83 | 1011.0 |
| 20260509040309 | 22 | 140 | 0.0 | 3.2 | 0.00 | 1.04 | 1.04 | 83 | 1011.1 |
| 20260509035806 | 22 | 142 | 3.2 | 3.2 | 0.00 | 1.04 | 1.04 | 82 | 1011.2 |
| 20260509035306 | 22 | 117 | 0.0 | 3.2 | 0.00 | 1.04 | 1.04 | 82 | 1011.2 |
| 20260509034759 | 22 | 141 | 0.0 | 3.2 | 0.00 | 1.04 | 1.04 | 82 | 1011.2 |
| 20260509034257 | 22 | 142 | 1.6 | 3.2 | 0.00 | 1.04 | 1.04 | 81 | 1011.1 |
| 20260509033754 | 22 | 179 | 3.2 | 3.2 | 0.00 | 1.04 | 1.04 | 81 | 1011.4 |
| 20260509033251 | 22 | 180 | 3.2 | 4.8 | 0.00 | 1.04 | 1.04 | 81 | 1011.0 |
| 20260509032748 | 22 | 165 | 1.6 | 3.2 | 0.00 | 1.04 | 1.04 | 80 | 1011.4 |
| 20260509032244 | 22 | 158 | 1.6 | 4.8 | 0.00 | 1.04 | 1.04 | 80 | 1011.6 |
| 20260509031742 | 22 | 188 | 0.0 | 3.2 | 0.00 | 1.04 | 1.04 | 81 | 1011.6 |
| 20260509031240 | 22 | 128 | 1.6 | 4.8 | 0.00 | 1.04 | 1.04 | 80 | 1011.1 |
| 20260509030737 | 22 | 154 | 1.6 | 3.2 | 0.00 | 1.04 | 1.04 | 80 | 1011.2 |
| 20260509030235 | 22 | 162 | 1.6 | 6.4 | 0.00 | 1.04 | 1.04 | 79 | 1010.9 |
| 20260509025732 | 22 | 157 | 3.2 | 4.8 | 0.00 | 1.04 | 1.04 | 79 | 1010.3 |
| 20260509025227 | 22 | 148 | 3.2 | 4.8 | 0.00 | 1.04 | 1.04 | 79 | 1010.0 |
| 20260509024722 | 22 | 138 | 0.0 | 4.8 | 0.00 | 1.04 | 1.04 | 79 | 1010.0 |
| 20260509024218 | 22 | 148 | 3.2 | 6.4 | 0.00 | 1.04 | 1.04 | 79 | 1009.9 |
| 20260509023716 | 22 | 152 | 3.2 | 6.4 | 0.00 | 1.04 | 1.04 | 79 | 1010.1 |
| 20260509023213 | 22 | 39 | 1.6 | 3.2 | 0.00 | 1.04 | 1.04 | 79 | 1009.8 |
| 20260509022709 | 22 | 154 | 0.0 | 3.2 | 0.00 | 1.04 | 1.04 | 78 | 1009.7 |
| 20260509022207 | 22 | 148 | 3.2 | 4.8 | 0.00 | 1.04 | 1.04 | 78 | 1009.4 |
| 20260509021704 | 22 | 134 | 1.6 | 3.2 | 0.00 | 1.04 | 1.04 | 78 | 1009.6 |
| 20260509021201 | 22 | 151 | 3.2 | 3.2 | 0.00 | 1.04 | 1.04 | 78 | 1009.7 |
| 20260509020659 | 22 | 50 | 0.0 | 4.8 | 0.00 | 1.04 | 1.04 | 78 | 1009.3 |
| 20260509020156 | 22 | 54 | 3.2 | 4.8 | 0.00 | 1.04 | 1.04 | 77 | 1009.1 |
| 20260509015654 | 22 | 44 | 1.6 | 3.2 | 0.00 | 1.04 | 1.04 | 77 | 1009.1 |
| 20260509015152 | 23 | 129 | 1.6 | 3.2 | 0.00 | 1.04 | 1.04 | 77 | 1009.0 |
| 20260509014648 | 23 | 29 | 0.0 | 4.8 | 0.00 | 1.04 | 1.04 | 76 | 1009.1 |
| 20260509014145 | 23 | 140 | 1.6 | 3.2 | 0.00 | 1.04 | 1.04 | 76 | 1009.1 |
| 20260509013642 | 23 | 128 | 4.8 | 4.8 | 0.00 | 1.04 | 1.04 | 76 | 1009.4 |
| 20260509013138 | 23 | 144 | 3.2 | 4.8 | 0.00 | 1.04 | 1.04 | 76 | 1009.4 |
| 20260509012634 | 23 | 26 | 1.6 | 3.2 | 0.00 | 1.04 | 1.04 | 75 | 1009.7 |
| 20260509012131 | 23 | 164 | 3.2 | 4.8 | 0.00 | 1.04 | 1.04 | 75 | 1009.7 |
| 20260509011629 | 23 | 112 | 1.6 | 3.2 | 0.00 | 1.04 | 1.04 | 75 | 1009.8 |
| 20260509011126 | 23 | 92 | 3.2 | 3.2 | 0.00 | 1.04 | 1.04 | 75 | 1009.8 |
| 20260509010624 | 23 | 103 | 0.0 | 3.2 | 0.00 | 1.04 | 1.04 | 75 | 1009.7 |
| 20260509010120 | 23 | 40 | 0.0 | 3.2 | 0.00 | 1.04 | 1.04 | 74 | 1009.6 |
| 20260509005618 | 23 | 108 | 1.6 | 4.8 | 0.00 | 1.04 | 1.04 | 74 | 1009.7 |
| 20260509005113 | 23 | 134 | 3.2 | 4.8 | 0.00 | 1.04 | 1.04 | 74 | 1009.2 |
| 20260509004610 | 23 | 12 | 1.6 | 4.8 | 0.00 | 1.04 | 1.04 | 74 | 1009.4 |
| 20260509004107 | 23 | 135 | 3.2 | 3.2 | 0.00 | 1.04 | 1.04 | 74 | 1009.4 |
| 20260509003605 | 23 | 18 | 1.6 | 3.2 | 0.00 | 1.04 | 1.04 | 73 | 1009.1 |
| 20260509003102 | 23 | 75 | 1.6 | 4.8 | 0.00 | 1.04 | 1.04 | 73 | 1009.2 |
| 20260509002600 | 23 | 31 | 1.6 | 4.8 | 0.00 | 1.04 | 1.04 | 72 | 1009.1 |
| 20260509002057 | 23 | 32 | 1.6 | 3.2 | 0.00 | 1.04 | 1.04 | 72 | 1009.2 |
| 20260509001554 | 23 | 12 | 1.6 | 3.2 | 0.00 | 1.04 | 1.04 | 71 | 1009.1 |
| 20260509001050 | 23 | 69 | 1.6 | 3.2 | 0.00 | 1.04 | 1.04 | 71 | 1009.0 |
| 20260509000549 | 24 | 74 | 0.0 | 3.2 | 0.00 | 1.04 | 1.04 | 71 | 1008.7 |
| 20260509000044 | 24 | 89 | 0.0 | 3.2 | 0.00 | 1.04 | 1.04 | 70 | 1009.3 |
| 20260508235542 | 24 | 44 | 4.8 | 4.8 | 0.00 | 1.04 | 1.04 | 69 | 1009.2 |
| 20260508235038 | 24 | 172 | 0.0 | 6.4 | 0.00 | 1.04 | 1.04 | 68 | 1009.3 |
| 20260508234536 | 25 | 356 | 1.6 | 3.2 | 0.00 | 1.04 | 1.04 | 68 | 1009.5 |
| 20260508234033 | 25 | 40 | 0.0 | 4.8 | 0.00 | 1.04 | 1.04 | 68 | 1009.4 |
| 20260508233532 | 25 | 140 | 1.6 | 4.8 | 0.00 | 1.04 | 1.04 | 67 | 1009.4 |
| 20260508233029 | 25 | 237 | 1.6 | 4.8 | 0.00 | 1.04 | 1.04 | 66 | 1009.4 |
| 20260508232526 | 25 | 358 | 0.0 | 6.4 | 0.00 | 1.04 | 1.04 | 66 | 1009.4 |
| 20260508232023 | 25 | 139 | 3.2 | 4.8 | 0.00 | 1.04 | 1.04 | 66 | 1009.7 |
| 20260508231520 | 25 | 186 | 0.0 | 3.2 | 0.00 | 1.04 | 1.04 | 66 | 1009.7 |
| 20260508231017 | 25 | 126 | 4.8 | 6.4 | 0.00 | 1.04 | 1.04 | 65 | 1009.6 |
| 20260508230514 | 25 | 165 | 0.0 | 3.2 | 0.00 | 1.04 | 1.04 | 65 | 1009.5 |
| 20260508230010 | 25 | 176 | 1.6 | 3.2 | 0.00 | 1.04 | 1.04 | 65 | 1009.5 |
| 20260508225508 | 25 | 148 | 3.2 | 3.2 | 0.00 | 1.04 | 1.04 | 65 | 1009.5 |
| 20260508225004 | 25 | 146 | 1.6 | 6.4 | 0.00 | 1.04 | 1.04 | 64 | 1009.4 |
| 20260508224502 | 26 | 14 | 1.6 | 6.4 | 0.00 | 1.04 | 1.04 | 63 | 1009.5 |
| 20260508223959 | 26 | 154 | 0.0 | 4.8 | 0.00 | 1.04 | 1.04 | 62 | 1009.7 |
| 20260508223457 | 26 | 295 | 3.2 | 6.4 | 0.00 | 1.04 | 1.04 | 60 | 1009.5 |
| 20260508222954 | 27 | 219 | 1.6 | 3.2 | 0.00 | 1.04 | 1.04 | 59 | 1009.6 |
| 20260508222452 | 27 | 73 | 1.6 | 4.8 | 0.00 | 1.04 | 1.04 | 58 | 1009.5 |
| 20260508221948 | 27 | 354 | 3.2 | 4.8 | 0.00 | 1.04 | 1.04 | 57 | 1009.5 |
| 20260508221444 | 26 | 320 | 0.0 | 6.4 | 0.00 | 1.04 | 1.04 | 58 | 1009.8 |
| 20260508220940 | 27 | 337 | 3.2 | 4.8 | 0.00 | 1.04 | 1.04 | 57 | 1009.6 |
| 20260508220437 | 27 | 18 | 3.2 | 4.8 | 0.00 | 1.04 | 1.04 | 55 | 1009.7 |
| 20260508215933 | 27 | 214 | 1.6 | 3.2 | 0.00 | 1.04 | 1.04 | 55 | 1009.6 |
| 20260508215431 | 27 | 343 | 3.2 | 4.8 | 0.00 | 1.04 | 1.04 | 56 | 1009.7 |
| 20260508214927 | 27 | 135 | 0.0 | 4.8 | 0.00 | 1.04 | 1.04 | 56 | 1009.6 |
| 20260508214425 | 27 | 162 | 3.2 | 8.0 | 0.00 | 1.04 | 1.04 | 56 | 1009.6 |
| 20260508213920 | 26 | 47 | 3.2 | 6.4 | 0.00 | 1.04 | 1.04 | 58 | 1009.6 |
| 20260508213418 | 27 | 89 | 0.0 | 4.8 | 0.00 | 1.04 | 1.04 | 57 | 1010.0 |
| 20260508212913 | 26 | 344 | 4.8 | 8.0 | 0.00 | 1.04 | 1.04 | 57 | 1010.0 |
| 20260508212410 | 26 | 191 | 3.2 | 4.8 | 0.00 | 1.04 | 1.04 | 57 | 1009.9 |
| 20260508211906 | 27 | 163 | 3.2 | 3.2 | 0.00 | 1.04 | 1.04 | 57 | 1009.9 |
| 20260508211402 | 27 | 181 | 4.8 | 4.8 | 0.00 | 1.04 | 1.04 | 56 | 1010.0 |
| 20260508210900 | 27 | 261 | 1.6 | 6.4 | 0.00 | 1.04 | 1.04 | 56 | 1010.1 |
| 20260508210356 | 27 | 346 | 3.2 | 4.8 | 0.00 | 1.04 | 1.04 | 58 | 1010.3 |
| 20260508205852 | 26 | 343 | 1.6 | 6.4 | 0.00 | 1.04 | 1.04 | 59 | 1010.3 |
| 20260508205349 | 26 | 211 | 0.0 | 3.2 | 0.00 | 1.04 | 1.04 | 58 | 1010.4 |
| 20260508204845 | 26 | 175 | 0.0 | 4.8 | 0.00 | 1.04 | 1.04 | 58 | 1010.2 |
| 20260508204343 | 26 | 216 | 0.0 | 4.8 | 0.00 | 1.04 | 1.04 | 57 | 1010.2 |
| 20260508203838 | 26 | 200 | 1.6 | 4.8 | 0.00 | 1.04 | 1.04 | 58 | 1010.3 |
| 20260508203335 | 26 | 180 | 4.8 | 4.8 | 0.00 | 1.04 | 1.04 | 59 | 1010.6 |
| 20260508202830 | 25 | 139 | 1.6 | 4.8 | 0.00 | 1.04 | 1.04 | 63 | 1010.9 |
| 20260508202328 | 24 | 146 | 3.2 | 4.8 | 0.00 | 1.04 | 1.04 | 63 | 1011.2 |
| 20260508201825 | 23 | 148 | 1.6 | 4.8 | 0.00 | 1.04 | 1.04 | 63 | 1011.7 |
| 20260508201322 | 23 | 140 | 4.8 | 6.4 | 0.00 | 1.04 | 1.04 | 64 | 1011.9 |
| 20260508200818 | 23 | 158 | 6.4 | 6.4 | 0.00 | 1.04 | 1.04 | 64 | 1011.9 |
| 20260508200315 | 23 | 139 | 3.2 | 6.4 | 0.00 | 1.04 | 1.04 | 64 | 1012.1 |
| 20260508195811 | 23 | 83 | 3.2 | 6.4 | 0.00 | 1.04 | 1.04 | 64 | 1012.1 |
| 20260508195308 | 23 | 79 | 4.8 | 4.8 | 0.00 | 1.04 | 1.04 | 63 | 1012.2 |
| 20260508194804 | 24 | 102 | 3.2 | 3.2 | 0.00 | 1.04 | 1.04 | 63 | 1012.1 |
| 20260508194301 | 24 | 85 | 3.2 | 4.8 | 0.00 | 1.04 | 1.04 | 61 | 1012.0 |
| 20260508193758 | 25 | 143 | 3.2 | 3.2 | 0.00 | 1.04 | 1.04 | 62 | 1012.2 |
| 20260508193255 | 25 | 31 | 1.6 | 3.2 | 0.00 | 1.04 | 1.04 | 61 | 1012.0 |
| 20260508192751 | 25 | 71 | 3.2 | 3.2 | 0.00 | 1.04 | 1.04 | 61 | 1012.1 |
| 20260508192248 | 25 | 87 | 4.8 | 4.8 | 0.00 | 1.04 | 1.04 | 60 | 1012.1 |
| 20260508191746 | 25 | 168 | 3.2 | 4.8 | 0.00 | 1.04 | 1.04 | 60 | 1012.2 |
| 20260508191243 | 25 | 162 | 3.2 | 6.4 | 0.00 | 1.04 | 1.04 | 61 | 1012.2 |
| 20260508190740 | 25 | 352 | 0.0 | 4.8 | 0.00 | 1.04 | 1.04 | 60 | 1012.1 |
| 20260508190236 | 25 | 154 | 1.6 | 4.8 | 0.00 | 1.04 | 1.04 | 60 | 1012.2 |
| 20260508185732 | 25 | 230 | 0.0 | 3.2 | 0.00 | 1.04 | 1.04 | 59 | 1012.3 |
| 20260508185230 | 26 | 242 | 0.0 | 3.2 | 0.00 | 1.04 | 1.04 | 58 | 1012.3 |
| 20260508184727 | 26 | 169 | 0.0 | 3.2 | 0.00 | 1.04 | 1.04 | 58 | 1012.2 |
| 20260508184224 | 26 | 163 | 3.2 | 3.2 | 0.00 | 1.04 | 1.04 | 58 | 1012.2 |
| 20260508183721 | 26 | 75 | 0.0 | 4.8 | 0.00 | 1.04 | 1.04 | 57 | 1012.3 |
| 20260508183217 | 26 | 7 | 0.0 | 3.2 | 0.00 | 1.04 | 1.04 | 56 | 1012.5 |
| 20260508182713 | 27 | 72 | 4.8 | 4.8 | 0.00 | 1.04 | 1.04 | 53 | 1012.6 |
| 20260508182210 | 27 | 203 | 0.0 | 4.8 | 0.00 | 1.04 | 1.04 | 55 | 1012.4 |
| 20260508181706 | 27 | 246 | 0.0 | 3.2 | 0.00 | 1.04 | 1.04 | 56 | 1012.6 |
| 20260508181203 | 26 | 107 | 0.0 | 6.4 | 0.00 | 1.04 | 1.04 | 57 | 1012.9 |
| 20260508180700 | 26 | 339 | 1.6 | 3.2 | 0.00 | 1.04 | 1.04 | 59 | 1013.0 |
| 20260508180157 | 26 | 327 | 3.2 | 4.8 | 0.00 | 1.04 | 1.04 | 57 | 1012.9 |
| 20260508175653 | 26 | 167 | 3.2 | 6.4 | 0.00 | 1.04 | 1.04 | 56 | 1012.9 |
| 20260508175149 | 26 | 350 | 1.6 | 4.8 | 0.00 | 1.04 | 1.04 | 59 | 1013.1 |
| 20260508174648 | 25 | 82 | 0.0 | 6.4 | 0.00 | 1.04 | 1.04 | 58 | 1013.3 |
| 20260508174144 | 25 | 145 | 3.2 | 4.8 | 0.00 | 1.04 | 1.04 | 61 | 1013.2 |
| 20260508173641 | 25 | 91 | 1.6 | 4.8 | 0.00 | 1.04 | 1.04 | 60 | 1013.4 |
| 20260508173137 | 25 | 89 | 3.2 | 6.4 | 0.00 | 1.04 | 1.04 | 59 | 1013.4 |
| 20260508172634 | 25 | 159 | 3.2 | 4.8 | 0.00 | 1.04 | 1.04 | 61 | 1013.5 |
| 20260508172131 | 25 | 48 | 0.0 | 3.2 | 0.00 | 1.04 | 1.04 | 63 | 1013.4 |
| 20260508171628 | 25 | 210 | 1.6 | 4.8 | 0.00 | 1.04 | 1.04 | 61 | 1013.7 |
| 20260508171124 | 25 | 177 | 3.2 | 4.8 | 0.00 | 1.04 | 1.04 | 63 | 1013.6 |
| 20260508170621 | 25 | 95 | 3.2 | 4.8 | 0.00 | 1.04 | 1.04 | 61 | 1013.8 |
| 20260508170119 | 24 | 35 | 0.0 | 6.4 | 0.00 | 1.04 | 1.04 | 64 | 1013.8 |
| 20260508165616 | 24 | 329 | 1.6 | 4.8 | 0.00 | 1.04 | 1.04 | 63 | 1013.8 |
| 20260508165113 | 24 | 0 | 1.6 | 4.8 | 0.00 | 1.04 | 1.04 | 64 | 1013.9 |
| 20260508164609 | 23 | 161 | 6.4 | 9.7 | 0.00 | 1.04 | 1.04 | 62 | 1013.9 |
| 20260508164106 | 23 | 55 | 3.2 | 4.8 | 0.00 | 1.04 | 1.04 | 66 | 1014.3 |
| 20260508163603 | 23 | 142 | 3.2 | 8.0 | 0.00 | 1.04 | 1.04 | 65 | 1014.4 |
| 20260508163100 | 22 | 144 | 3.2 | 8.0 | 0.00 | 1.04 | 1.04 | 67 | 1014.4 |
| 20260508162556 | 22 | 140 | 3.2 | 6.4 | 0.00 | 1.04 | 1.04 | 69 | 1014.5 |